KB4UTZ Weather Reports


time (UTC)temp
C
wind
direction
speed
KPH
gust
KPH
rain 1hr
cm
rain 24hr
cm
rain mn
cm
humidity
%
barometer
mb
20260504035138 6 351 0.0 3.2 0.00 0.00 0.00 85 1021.3
20260504034037 7 0.0 3.2 0.00 0.00 0.00 83 1021.1
20260504033057 7 354 0.0 3.2 0.00 0.00 0.00 84 1021.2
20260504032037 7 339 0.0 3.2 0.00 0.00 0.00 82 1021.2
20260504031037 7 0.0 3.2 0.00 0.00 0.00 81 1021.1
20260504030036 7 275 0.0 3.2 0.00 0.00 0.00 81 1021.1
20260504025057 7 265 0.0 1.6 0.00 0.00 0.00 79 1021.0
20260504024036 8 305 0.0 3.2 0.00 0.00 0.00 79 1021.2
20260504023036 8 306 0.0 3.2 0.00 0.00 0.00 78 1021.0
20260504022036 8 327 3.2 4.8 0.00 0.00 0.00 77 1020.8
20260504021036 8 329 1.6 3.2 0.00 0.00 0.00 77 1020.9
20260504020036 8 226 0.0 3.2 0.00 0.00 0.00 75 1020.8
20260504015037 8 326 1.6 3.2 0.00 0.00 0.00 74 1020.9
20260504014036 9 0.0 1.6 0.00 0.00 0.00 73 1020.8
20260504013036 9 216 0.0 3.2 0.00 0.00 0.00 71 1020.7
20260504012037 10 0.0 1.6 0.00 0.00 0.00 70 1020.6
20260504011036 10 324 1.6 3.2 0.00 0.00 0.00 68 1020.6
20260504010056 11 246 0.0 3.2 0.00 0.00 0.00 67 1020.5
20260504005036 11 309 1.6 3.2 0.00 0.00 0.00 64 1020.4
20260504004036 11 300 1.6 3.2 0.00 0.00 0.00 63 1020.3
20260504003036 12 275 0.0 1.6 0.00 0.00 0.00 62 1020.3
20260504002036 12 317 1.6 3.2 0.00 0.00 0.00 60 1020.4
20260504001036 12 335 1.6 3.2 0.00 0.00 0.00 59 1020.4
20260504000035 13 348 0.0 3.2 0.00 0.00 0.00 57 1020.5
20260503235036 13 249 1.6 3.2 0.00 0.00 0.00 54 1020.4
20260503234035 14 233 1.6 3.2 0.00 0.00 0.00 51 1020.5
20260503233035 15 297 1.6 3.2 0.00 0.00 0.00 49 1020.6
20260503232035 15 304 1.6 4.8 0.00 0.00 0.00 46 1020.6
20260503231035 16 329 4.8 6.4 0.00 0.00 0.00 44 1020.8
20260503230036 16 311 3.2 6.4 0.00 0.00 0.00 43 1020.7
20260503225036 17 321 1.6 6.4 0.00 0.00 0.00 41 1020.9
20260503224036 17 323 1.6 4.8 0.00 0.00 0.00 40 1020.8
20260503223036 18 291 1.6 6.4 0.00 0.00 0.00 36 1020.9
20260503222036 18 154 4.8 16.1 0.00 0.00 0.00 32 1020.9
20260503221056 19 110 1.6 4.8 0.00 0.00 0.00 33 1020.9
20260503220036 19 183 3.2 8.0 0.00 0.00 0.00 34 1021.0
20260503215035 19 200 3.2 6.4 0.00 0.00 0.00 34 1020.9
20260503214035 19 216 3.2 8.0 0.00 0.00 0.00 34 1021.1
20260503213035 18 248 4.8 11.3 0.00 0.00 0.00 33 1021.2
20260503212055 19 281 4.8 9.7 0.00 0.00 0.00 32 1021.2
20260503211035 19 192 3.2 9.7 0.00 0.00 0.00 34 1021.2
20260503210056 18 202 4.8 6.4 0.00 0.00 0.00 32 1021.2
20260503205036 19 135 4.8 12.9 0.00 0.00 0.00 32 1021.4
20260503204035 19 192 4.8 9.7 0.00 0.00 0.00 33 1021.6
20260503203056 19 128 3.2 9.7 0.00 0.00 0.00 32 1021.8
20260503202035 19 200 4.8 9.7 0.00 0.00 0.00 34 1021.8
20260503201055 19 99 4.8 8.0 0.00 0.00 0.00 33 1022.1
20260503200036 18 205 4.8 8.0 0.00 0.00 0.00 35 1022.1
20260503195036 18 162 6.4 14.5 0.00 0.00 0.00 33 1022.4
20260503194036 18 213 6.4 11.3 0.00 0.00 0.00 36 1022.3
20260503193036 18 127 4.8 12.9 0.00 0.00 0.00 36 1022.4
20260503192035 18 135 6.4 8.0 0.00 0.00 0.00 35 1022.6
20260503191035 18 174 4.8 9.7 0.00 0.00 0.00 37 1022.6
20260503190036 17 181 4.8 11.3 0.00 0.00 0.00 36 1022.8
20260503185036 17 137 4.8 11.3 0.00 0.00 0.00 36 1023.0
20260503184036 17 236 4.8 9.7 0.00 0.00 0.00 37 1023.0
20260503183035 17 162 6.4 9.7 0.00 0.00 0.00 37 1023.1
20260503182036 17 181 8.0 14.5 0.00 0.00 0.00 36 1023.3
20260503181121 16 188 6.4 12.9 0.00 0.00 0.00 37 1023.4
20260503180035 17 207 3.2 9.7 0.00 0.00 0.00 37 1023.3
20260503175035 16 184 4.8 9.7 0.00 0.00 0.00 38 1023.6
20260503174035 16 182 4.8 9.7 0.00 0.00 0.00 39 1023.6
20260503173035 17 206 9.7 16.1 0.00 0.00 0.00 38 1023.8
20260503172035 17 159 3.2 9.7 0.00 0.00 0.00 39 1023.9
20260503171035 16 179 3.2 9.7 0.00 0.00 0.00 40 1023.9
20260503131035 12 101 1.6 3.2 0.00 0.00 0.00 60 1025.3
20260503081034 7 0.0 1.6 0.00 0.00 0.00 82 1022.5
20260503080115 7 0.0 1.6 0.00 0.00 0.00 83 1022.3
20260503072035 8 0.0 3.2 0.00 0.00 0.00 78 1022.2
20260503071034 8 337 0.0 1.6 0.00 0.00 0.00 78 1022.1
20260503055055 8 213 0.0 3.2 0.00 0.00 0.00 77 1021.9
20260503054035 8 304 0.0 1.6 0.00 0.00 0.00 76 1021.9
20260503053034 8 311 0.0 1.6 0.00 0.00 0.00 76 1021.9
20260503052035 9 2 0.0 1.6 0.00 0.00 0.00 77 1021.9
20260503051034 9 238 0.0 3.2 0.00 0.00 0.00 75 1021.8
20260503050034 9 318 0.0 3.2 0.00 0.00 0.00 74 1021.8
20260503045034 9 14 0.0 3.2 0.00 0.00 0.00 74 1021.8
20260503044034 9 0.0 1.6 0.00 0.00 0.00 75 1021.8
20260503043034 9 0.0 3.2 0.00 0.00 0.00 73 1021.9
20260503042034 9 354 0.0 3.2 0.00 0.00 0.00 72 1021.8
20260503041034 9 252 0.0 3.2 0.00 0.00 0.00 74 1021.6
20260503040034 9 344 0.0 3.2 0.00 0.00 0.00 72 1021.6